CXA8216 ZUCK-ZPPP

Flight info

Callsign CXA8216
Flight time N/A
Altitude 26600
Route NUDVO1Z NUDVO W30 URGUS/K0804S0780 W30 MEBNA MEBNA1A
Aircraft B738/M-SDE2E3FGHIRWXY/LB1

Departure

Time 2026-04-19 09:15
Airport Chongqing Jiangbei International Airport (ZUCK)

Arrival

Time N/A
Airport Kunming Changshui International Airport (ZPPP)
Time Latitude Longitude Altitude Speed Heading
2026-04-19 08:20 29.71967 106.65062 1369 ft 0 kts 174°
2026-04-19 09:01 29.71972 106.65062 1369 ft 2 kts 174°
2026-04-19 09:01 29.71986 106.65060 1369 ft 2 kts 174°
2026-04-19 09:01 29.72002 106.65058 1369 ft 2 kts 174°
2026-04-19 09:02 29.72016 106.65057 1369 ft 2 kts 174°
2026-04-19 09:02 29.72031 106.65055 1369 ft 2 kts 174°
2026-04-19 09:02 29.72045 106.65054 1369 ft 0 kts 174°
2026-04-19 09:02 29.72056 106.65051 1369 ft 2 kts 155°
2026-04-19 09:03 29.72068 106.65041 1369 ft 2 kts 124°
2026-04-19 09:03 29.72073 106.65025 1369 ft 2 kts 93°
2026-04-19 09:03 29.72070 106.65007 1369 ft 2 kts 63°
2026-04-19 09:03 29.72061 106.64994 1369 ft 2 kts 32°
2026-04-19 09:04 29.72053 106.64990 1369 ft 1 kts 15°
2026-04-19 09:04 29.72048 106.64989 1369 ft 0 kts 16°
2026-04-19 09:06 29.72051 106.64990 1369 ft 0 kts 16°
2026-04-19 09:06 29.72060 106.64992 1369 ft 2 kts 19°
2026-04-19 09:07 29.72082 106.65001 1369 ft 4 kts 19°
2026-04-19 09:07 29.72117 106.65014 1369 ft 5 kts 17°
2026-04-19 09:07 29.72162 106.65030 1369 ft 7 kts 16°
2026-04-19 09:07 29.72218 106.65041 1369 ft 8 kts 351°
2026-04-19 09:08 29.72255 106.64992 1369 ft 7 kts 298°
2026-04-19 09:08 29.72299 106.64989 1369 ft 6 kts 15°
2026-04-19 09:08 29.72341 106.65003 1369 ft 7 kts 18°
2026-04-19 09:08 29.72398 106.65023 1369 ft 10 kts 17°
2026-04-19 09:09 29.72476 106.65050 1369 ft 13 kts 17°
2026-04-19 09:09 29.72573 106.65082 1369 ft 15 kts 16°
2026-04-19 09:09 29.72689 106.65123 1369 ft 18 kts 18°
2026-04-19 09:09 29.72818 106.65168 1369 ft 18 kts 17°
2026-04-19 09:10 29.72939 106.65209 1369 ft 17 kts 17°
2026-04-19 09:10 29.73050 106.65248 1369 ft 15 kts 17°
2026-04-19 09:10 29.73149 106.65282 1369 ft 14 kts 17°
2026-04-19 09:10 29.73240 106.65314 1369 ft 12 kts 16°
2026-04-19 09:11 29.73319 106.65340 1369 ft 11 kts 17°
2026-04-19 09:11 29.73390 106.65366 1369 ft 10 kts 21°
2026-04-19 09:11 29.73466 106.65403 1369 ft 13 kts
2026-04-19 09:11 29.73512 106.65358 1369 ft 4 kts 288°
2026-04-19 09:12 29.73521 106.65324 1369 ft 3 kts 287°
2026-04-19 09:12 29.73528 106.65299 1369 ft 3 kts 287°
2026-04-19 09:12 29.73536 106.65267 1369 ft 6 kts 287°
2026-04-19 09:12 29.73553 106.65205 1369 ft 8 kts 287°
2026-04-19 09:13 29.73549 106.65144 1369 ft 7 kts 237°
2026-04-19 09:13 29.73513 106.65118 1369 ft 5 kts 199°
2026-04-19 09:13 29.73480 106.65106 1369 ft 4 kts 197°
2026-04-19 09:13 29.73456 106.65097 1369 ft 3 kts 197°
2026-04-19 09:14 29.73429 106.65088 1369 ft 9 kts 197°
2026-04-19 09:14 29.73098 106.64976 1369 ft 87 kts 197°
2026-04-19 09:14 29.72292 106.64693 1369 ft 152 kts 198°
2026-04-19 09:14 29.71149 106.64368 1694 ft 180 kts 192°
2026-04-19 09:15 29.69990 106.64415 2647 ft 168 kts 160°
2026-04-19 09:15 29.69248 106.65395 2958 ft 189 kts 68°